CUBEBEL-1 (BSUSAT-1) (43666 NORAD) Tracking and Keplerian Element Data

This shows tracking and keplerian element data for the satellite.

Feedback or suggestion? Click here.




ElementValue
Catalog43666
NameCUBEBEL-1 (BSUSAT-1)
Epoch Orbit2664
Epoch Day112.71550922
Epoch Year2019
RAAN137.5732
Inclination97.5245
Eccentricity0.0016193
Argument of Perigee32.9954
Mean Anonmoly59.2372
Mean Motion15.17455631
Decay Rate1.178E-05
L11 43666U 18083E 19112.71550922 .00001178 00000-0 62125-4 0 9997
L22 43666 97.5245 137.5732 0016193 32.9954 59.2372 15.17455631 26643

Live tracking and technical data element details for CUBEBEL-1 (BSUSAT-1) (NORAD 43666). CUBEBEL-1 (BSUSAT-1) can be tracked NOW for your location showing map with azimuth and elevation plus other details from your city location.

Track the satellite on the map from your city or location and see movement details for azimuth, elevation, latitude, longitude, range, height, and movement on the map or in text.







IsCatalogInMostPopularTable: catalog: 43666, numindb: 87
Update: records affected: 1



GetName: 43666 CUBEBEL-1 (BSUSAT-1)

Hit Count: updated at: Tue, 23 Apr 2019 20:59:08 GMT